Retour au catalogue

SL-19 R/B

ActifPO
NORAD 37363·ROCKET BODY·🇷🇺 Russia

Lancé Feb 1, 2011 depuis Plesetsk Cosmodrome

Loading…

Prochains Passages (prochaines 24 heures)

TLE

FraisSource: Space-Track

Époque: Sep 14, 2026, 13:36 UTC

1 37363U 11005B   26257.56681353  .00049638  40730-5  28442-3 0  9990
2 37363  99.3643  68.9388 0087872 224.8718 134.5413 15.73621580853065

Suivez SL-19 R/B en temps réel avec AllMySat

Download on the App Store